Flag Weather past 2 weeks in Inverness, Florida, U.S.A.

Now
75 °F

Mild.


Feels Like: 75 °F
Forecast: 66 / 76 °F
Wind: No wind

Location: The Villages

Current Time: Nov 24, 2014 at 9:07:59 PM

Latest Report: Nov 24, 2014 at 8:15 PM


Visibility: 9 mi

Pressure: 29.89 "Hg

Humidity: 83%

Dew point: 70 °F

Location of InvernessLocation

Historic Weather in Inverness — Graph

°F

Inverness temperature yesterday

Maximum temperature yesterday: 84 °F (at 2:15 PM)
Minimum temperature yesterday: 68 °F (at 12:15 AM)
Average temperature yesterday: 75 °F

Past Weeks' High & Low Weather Summary

 TemperatureHumidityPressure
High86 °F (Nov 24, 12:55 PM)100% (Nov 9, 8:15 PM)30.33 "Hg (Nov 9, 8:15 PM)
Low36 °F (Nov 19, 5:15 AM)24% (Nov 20, 3:55 PM)29.77 "Hg (Nov 23, 2:15 PM)
Average62 °F76%30.00 "Hg
* Reported Nov 9 7:35 PM — Nov 24 7:55 PM, Inverness, Weather by CustomWeather, © 2014

Note: Actual official high and low records may vary slightly from our data, if they occured in-between our weather recording intervals... More about our weather records

Advertising

Inverness weather history for previous 24 hours

 ConditionsComfort  
Time TempWeatherWind HumidityBarometerVisibility
7:55 PM
Nov 24
75 °FMild.3 mph83%29.88 "Hg9 mi
7:35 PM77 °FWarm.5 mph79%29.88 "Hg9 mi
7:15 PM77 °FWarm.3 mph74%29.87 "Hg8 mi
6:55 PM77 °FHaze.5 mph74%29.87 "Hg6 mi
6:15 PM79 °FWarm.6 mph70%29.85 "Hg10 mi
5:55 PM81 °FWarm.7 mph66%29.84 "Hg10 mi
5:35 PM81 °FWarm.8 mph66%29.84 "Hg10 mi
5:15 PM81 °FWarm.8 mph66%29.84 "Hg7 mi
4:35 PM84 °FWarm.15 mph58%29.83 "Hg10 mi
4:15 PM84 °FWarm.12 mph58%29.82 "Hg10 mi
3:35 PM86 °FWarm.14 mph55%29.81 "Hg10 mi
3:15 PM84 °FWarm.13 mph62%29.82 "Hg9 mi
2:55 PM86 °FWarm.10 mph59%29.81 "Hg8 mi
2:15 PM86 °FWarm.12 mph59%29.81 "Hg10 mi
1:55 PM86 °FWarm.10 mph59%29.81 "Hg10 mi
1:15 PM86 °FWarm.10 mph62%29.82 "Hg9 mi
12:55 PM86 °FWarm.10 mph62%29.83 "Hg9 mi
12:15 PM84 °FWarm.9 mph66%29.85 "Hg9 mi
11:55 AM84 °FWarm.10 mph70%29.86 "Hg10 mi
11:35 AM81 °FWarm.9 mph74%29.87 "Hg8 mi
11:15 AM82 °FWarm.10 mph70%29.88 "Hg8 mi
10:55 AM81 °FWarm.10 mph74%29.88 "Hg8 mi
10:35 AM79 °FWarm.12 mph84%29.88 "Hg9 mi
10:15 AM79 °FWarm.12 mph84%29.88 "Hg9 mi
9:55 AM79 °FWarm.10 mph84%29.88 "Hg9 mi
9:15 AM77 °FWarm.9 mph89%29.88 "Hg8 mi
8:55 AM75 °FMild.8 mph94%29.88 "HgN/A
8:35 AM75 °FFog.6 mph94%29.88 "Hg5 mi
8:15 AM73 °FFog.7 mph94%29.87 "Hg6 mi
7:55 AM73 °FFog.5 mph94%29.87 "Hg5 mi
7:15 AM72 °FFog.6 mph100%29.86 "Hg5 mi
6:55 AM72 °FFog.6 mph100%29.85 "Hg5 mi
6:15 AM73 °FFog.7 mph94%29.84 "Hg5 mi
5:55 AM73 °FFog.5 mph94%29.84 "Hg6 mi
5:15 AM73 °FMild.8 mph94%29.83 "Hg7 mi
4:55 AM73 °FFog.9 mph94%29.82 "Hg6 mi
4:35 AM73 °FFog.9 mph100%29.82 "Hg6 mi
4:15 AM73 °FFog.12 mph100%29.82 "Hg4 mi
3:55 AM73 °FFog.8 mph100%29.82 "Hg5 mi
3:15 AM73 °FMild.7 mph94%29.82 "Hg7 mi
2:55 AM73 °FMild.6 mph94%29.82 "Hg8 mi
2:15 AM73 °FMild.6 mph94%29.81 "Hg8 mi
1:55 AM72 °FMild.5 mph100%29.81 "Hg7 mi
1:15 AM72 °FMild.8 mph100%29.81 "Hg8 mi
12:55 AM72 °FMild.7 mph100%29.81 "Hg7 mi
12:15 AM72 °FMild.7 mph94%29.81 "HgN/A
11:55 PM
Nov 23
72 °FMild.5 mph94%29.83 "Hg8 mi
11:35 PM72 °FMild.6 mph94%29.82 "Hg8 mi
11:15 PM72 °FMild.No wind94%29.83 "Hg10 mi
10:55 PM72 °FMild.5 mph94%29.83 "Hg9 mi
10:15 PM72 °FMild.No wind94%29.84 "Hg9 mi
9:55 PM72 °FMild.No wind94%29.85 "Hg9 mi
9:35 PM73 °FMild.No wind89%29.85 "Hg9 mi
9:15 PM72 °FMild.No wind94%29.83 "Hg9 mi
Weather by CustomWeather, © 2014

See weather overviewHow to use our weather pages